www.pogodaiklimat.ru

Погода и климат >> Архив погоды >> Таиланд >> Кабинбури


ПОГОДА в Кабинбури

  • Прогноз погоды в Кабинбури
  • Монитор погоды в Кабинбури

АРХИВ ПОГОДЫ в Кабинбури

Время (UTC), дата Ветер
(напр.,м/с)
 
Видим.   Явления Облачность Т
(С)
Тd
(С)
f
(%)
Тe
(С)
Тes
(С)
Комфортность P
(гПа)
Po
(гПа)
Тmin
(С)
Tmax
(С)
R
(мм)
R24
(мм)
S
(см)
18 12.06 штиль 0 6000 м дымка 3/0
[Cs]
+27.0 +25.6 92 +40 +40 очень
душно
1006.8 1005.4
21 12.06 штиль 0 6000 м дымка 3/0
[Cs]
+27.0 +25.6 92 +40 +40 очень
душно
1006.3 1004.9
00 13.06 штиль 0 8000 м дымка 4/0
[Ac und Cs]
+27.0 +25.6 92 +40 +42 очень
душно
1007.2 1005.8 +26.2
03 13.06 штиль 0 10 км 4/3 600 м
[Cu med, cong Ac cuf]
+32.7 +27.9 76 +53 +66 опасность
перегрева
1008.1 1006.7
06 13.06 штиль 0 10 км 8/6 600 м
[Cu Sc Ac und Cs]
+33.4 +25.9 65 +49 +57 опасность
перегрева
1006.2 1004.8
09 13.06 штиль 0 10 км 5/3 600 м
[Sc Ac lent Cs]
+32.4 +24.7 64 +45 +52 опасность
перегрева
1004.8 1003.4
12 13.06 штиль 0 10 км 8/5 600 м
[Cu Sc Ac und Cs]
+31.0 +25.8 74 +46 +46 опасность
перегрева
1004.9 1003.5 +35.2
15 13.06 штиль 0 6000 м дымка 8/5 600 м
[Cu Sc Ac und Cs]
+28.8 +26.0 85 +43 +43 опасность
перегрева
1007.9 1006.5
18 13.06 штиль 0 6000 м дымка 5/0
[Cs]
+27.8 +26.0 90 +42 +42 опасность
перегрева
1007.3 1005.9
21 13.06 штиль 0 6000 м дымка 8/4 600 м
[Sc Ac und Cs]
+27.2 +26.1 94 +41 +41 опасность
перегрева
1006.8 1005.4
00 14.06 штиль 0 8000 м дымка 6/4 600 м
[Sc Ac trans Cs]
+27.0 +25.6 92 +40 +41 очень
душно
1007.1 1005.6 +26.5
03 14.06 ЮЗ 2 11 км 8/5 600 м
[Cu Sc Ac trans Cs]
+31.5 +25.7 71 +46 +52 опасность
перегрева
1008.1 1006.7
06 14.06 ЮЗ 2 11 км 6/5 600 м
[Cu Sc Ac trans Cs]
+34.0 +25.6 62 +49 +58 опасность
перегрева
1005.7 1004.3
09 14.06 З 4 11 км 5/3 600 м
[Cu hum Cs]
+35.0 +25.2 57 +49 +52 опасность
перегрева
1003.9 1002.5
12 14.06 З 2 9000 м мгла 3/3 600 м
[Sc Cs]
+31.5 +23.9 64 +43 +43 опасность
перегрева
1004.9 1003.5 +35.8
15 14.06 штиль 0 6000 м дымка 6/4 600 м
[Sc Ac trans Cs]
+29.4 +25.3 79 +43 +43 опасность
перегрева
1007.9 1006.5
18 14.06 штиль 0 6000 м дымка 3/0
[Cs]
+28.3 +25.8 86 +42 +42 опасность
перегрева
1007.5 1006.1
21 14.06 штиль 0 6000 м дымка 3/0
[Cs]
+27.7 +25.9 90 +41 +41 опасность
перегрева
1006.2 1004.8
00 15.06 штиль 0 8000 м дымка 9/4 600 м
[Cu Sc Cs]
+27.3 +25.6 90 +40 +41 очень
душно
1007.7 1006.3 +26.5
03 15.06 штиль 0 10 км 8/3 600 м
[Cu Sc Cs]
+32.7 +26.1 68 +48 +61 опасность
перегрева
1008.3 1006.9
06 15.06 штиль 0 10 км гроза, ливневой дождь 9/5 300 м
[Cb cap Ac und Cs]
+32.4 +27.6 76 +52 +60 опасность
перегрева
1006.6 1005.2 2
09 15.06 З 4 11 км {гроза} 8/4 300 м
[Cb cap Cs]
+35.0 +26.0 60 +51 +54 опасность
перегрева
1004.1 1002.7
12 15.06 штиль 0 8000 м дымка {гроза, дождь} 9/1 600 м
[Cu med, cong Ac und Cs]
+30.5 +26.3 78 +46 +46 опасность
перегрева
1004.8 1003.4 +35.1 2
15 15.06 штиль 0 8000 м дымка 6/3 600 м
[Cu Sc Cs]
+29.2 +25.5 80 +43 +43 опасность
перегрева
1007.4 1006.0
18 15.06 штиль 0 6000 м гроза, ливневой дождь 10/5 300 м
[Cb cap Ac und Cs]
+24.5 +23.2 92 +33 +33 очень
душно
1008.3 1006.8 27
21 15.06 штиль 0 6000 м дымка {гроза, дождь} 10/5 600 м
[Sc Ac und Cs]
+24.2 +23.5 96 +33 +33 очень
душно
1006.5 1005.1 2
00 16.06 штиль 0 8000 м дымка {гроза, дождь} 9/5 600 м
[Sc Ac und Cs]
+24.7 +23.8 95 +34 +34 очень
душно
1007.1 1005.7 +23.9 31
03 16.06 штиль 0 11 км 4/3 600 м
[Cu hum Ac trans Cs]
+30.8 +26.5 78 +47 +61 опасность
перегрева
1007.9 1006.5
06 16.06 штиль 0 11 км 6/3 600 м
[Cu med, cong Ac trans Cs]
+33.5 +26.6 67 +50 +66 опасность
перегрева
1006.0 1004.6
09 16.06 З 2 11 км 6/3 600 м
[Cu med, cong Ac trans Cs]
+34.0 +25.1 60 +48 +52 опасность
перегрева
1003.8 1002.4
12 16.06 З 5 9000 м дымка 9/5 600 м
[Cu Sc Ac und Cs]
+27.5 +23.9 81 +38 +38 очень
душно
1005.8 1004.4 +34.5
15 16.06 штиль 0 6000 м дымка {дождь} 10/5 600 м
[Sc Ac und Cs]
+26.4 +25.1 93 +38 +38 очень
душно
1008.0 1006.5 3
18 16.06 штиль 0 6000 м дымка {дождь} 9/5 600 м
[Sc Ac und Cs]
+26.4 +25.1 93 +38 +38 очень
душно
1007.0 1005.5 0.4
21 16.06 штиль 0 6000 м дымка 8/4 600 м
[Sc Ac und Cs]
+26.3 +25.3 94 +38 +38 очень
душно
1005.6 1004.2
00 17.06 штиль 0 6000 м дымка 9/6 600 м
[Cu Sc Ac trans Cs]
+26.2 +25.6 97 +39 +39 очень
душно
1006.9 1005.5 +25.8
03 17.06 штиль 0 11 км 8/5 600 м
[Sc Ac trans Cs]
+29.5 +26.6 84 +45 +53 опасность
перегрева
1008.3 1006.9
06 17.06 штиль 0 6000 м гроза, ливневой дождь 10/6 300 м
[Cb cap Ac As]
+26.0 +24.3 90 +36 +40 очень
душно
1007.0 1005.5 41
09 17.06 штиль 0 8000 м слаб. дождь 10/6 600 м
[Cu Sc Ac As Cs]
+26.0 +24.6 92 +37 +39 очень
душно
1005.7 1004.3 5
12 17.06 штиль 0 8000 м дымка {дождь} 9/4 600 м
[Sc Ac As Cs]
+26.5 +25.8 96 +39 +39 очень
душно
1005.7 1004.3 +29.7 0.3
15 17.06 штиль 0 6000 м дымка {дождь} 8/5 600 м
[Sc Ac trans Cs]
+26.3 +25.6 96 +39 +39 очень
душно
1008.1 1006.6 0.2
18 17.06 штиль 0 6000 м дымка {дождь} 8/5 600 м
[Sc Ac trans Cs]
+25.8 +25.1 96 +37 +37 очень
душно
1007.2 1005.7 46
21 17.06 штиль 0 6000 м дымка 8/5 600 м
[Sc Ac trans Cs]
+25.5 +24.8 96 +36 +36 очень
душно
1006.6 1005.1
00 18.06 штиль 0 8000 м дымка 10/5 600 м
[Sc Ac und Cs]
+25.7 +25.1 96 +37 +37 очень
душно
1006.9 1005.5 +25.5
03 18.06 штиль 0 10 км 10/5 600 м
[Sc Ac und Cs]
+29.0 +26.6 87 +45 +50 опасность
перегрева
1007.9 1006.5
06 18.06 штиль 0 8000 м гроза, ливневой дождь 10/5 300 м
[Cb cap Ac und Cs]
+27.5 +26.1 92 +41 +48 опасность
перегрева
1007.1 1005.7 0.7
09 18.06 штиль 0 10 км {гроза} 9/3 600 м
[Sc Ac und Cs]
+28.0 +26.3 91 +43 +47 опасность
перегрева
1004.9 1003.5 0.0
12 18.06 штиль 0 8000 м дымка {гроза} 8/3 600 м
[Sc Ac und Cs]
+28.5 +26.7 90 +44 +44 опасность
перегрева
1005.6 1004.2 +31.3 0.7
15 18.06 штиль 0 8000 м дымка 8/3 600 м
[Sc Cs]
+27.2 +26.2 94 +41 +41 опасность
перегрева
1008.1 1006.6
18 18.06 штиль 0 6000 м дымка 9/0
[Ac und Cs]
+26.6 +25.7 95 +39 +39 очень
душно
1007.4 1006.0
21 18.06 штиль 0 6000 м дымка 8/0
[Ac trans Cs]
+26.0 +25.3 96 +38 +38 очень
душно
1006.4 1004.9
00 19.06 штиль 0 8000 м дымка 10/5 600 м
[Sc Ac und Cs]
+26.2 +25.5 96 +38 +39 очень
душно
1007.6 1006.1 +25.7
03 19.06 штиль 0 10 км 8/3 600 м
[Cu med, cong Ac trans Cs]
+31.8 +26.5 74 +49 +58 опасность
перегрева
1008.3 1006.9
06 19.06 З 4 10 км 5/3 600 м
[Cu med, cong Ac trans Cs]
+33.2 +26.1 66 +49 +57 опасность
перегрева
1007.3 1005.9
09 19.06 ЮЗ 4 10 км 6/3 600 м
[Cu med, cong Ac und Cs]
+33.0 +26.2 68 +49 +52 опасность
перегрева
1005.0 1003.6
12 19.06 штиль 0 10 км 5/3 600 м
[Sc Ac und Cs]
+31.1 +25.8 73 +46 +46 опасность
перегрева
1005.3 1003.9 +34.6
15 19.06 штиль 0 6000 м дымка 3/3 600 м
[Sc Ac und Cs]
+28.0 +25.6 87 +41 +41 опасность
перегрева
1007.6 1006.1

 

Местоположение метеостанции Кабинбури (Таиланд): широта 13.98 долгота 101.70 высота над уровнем моря 12 м.

В архиве по умолчанию представлена погода в Кабинбури за последнюю неделю. Архивные данные за месяц целиком и за предыдущие месяцы, начиная с января 2011 года, Вы можете получить, выбрав интересующий диапазон дат из раскрывающегося списка и нажав кнопку "Ввод!".


*Определитесь, кто Вы:
робот инопланетянин человек

Внимание! Время в таблицах - всемирное. Для получения местного времени необходимо прибавить поправку, которая равна 7 ч.

Смотрите также архив погоды в соседних городах и на ближайших метеорологических станциях:

Погода в Прачинбури (Таиланд) (38 км)
Погода в Сракаеве (Таиланд) (42 км)
Погода в Чаченгсау (Таиланд) (60 км)
Погода в Пакчонг Агромете (Таиланд) (83 км)
Погода в Чок Чай (Таиланд) (96 км)
Погода в Араньяпратете (Таиланд) (100 км)
Погода в Чонбури (Таиланд) (103 км)
Погода в Ратбури (Таиланд) (103 км)
Погода в Сарабури (Таиланд) (103 км)
Погода в Аэропорту Суварнабхуми (Таиланд) (107 км)

Пояснения к столбцам:

Ветер - указаны скорость ветра в м/с - средняя за 10 мин, порывы в срок и между сроками (в фигурных скобках) и направление, откуда дует ветер: С - северный, СВ - северо-восточный, В - восточный, ЮВ - юго-восточный, Ю - южный, ЮЗ - юго-западный, З - западный, СЗ - северо-западный.
Видимость - горизонтальная дальность видимости в метрах или километрах. При видимости от 1 до 10 км при отсутствии осадков обычно наблюдается дымка, при ухудшении видимости до 1 км и менее - туман. В сухую погоду видимость может ухудшаться дымом, пылью или мглою.
Явления - указаны атмосферные явления, наблюдавшиеся в срок или в последний час перед сроком; фигурными скобками обозначены явления, наблюдавшиеся между сроками (за 1-3 часа до срока); квадратными скобками обозначены град или гололедные отложения с указанием их диаметра в мм.
Облачность - указаны через наклонную черту общая и нижняя облачность в баллах и высота нижней границы облаков в метрах; квадратными скобками обозначены формы облаков: Ci - перистые, Cs - перисто-слоистые, Cc - перисто-кучевые, Ac - высококучевые, As - высокослоистые, Sc - слоисто-кучевые, Ns - слоисто-дождевые, Cu - кучевые, Cb - кучево-дождевые. Подробнее классификацию облаков см. в Атласе облаков (PDF).
T - Температура воздуха - температура, измеренная на высоте 2 м над землей.
Td - Температура точки росы - температура, при понижении до которой содержащийся в воздухе водяной пар достигнет насыщения.
f - Относительная влажность воздуха - влажноcть воздуха, измеренная на высоте 2 м над землей.
Te - Эффективная температура - температура, которую ощущает одетый по сезону человек в тени. Характеристика душности погоды. При расчете учитывается влияние влажности воздуха и скорости ветра на теплоощущения человека.
Tes - Эффективная температура на солнце - температура, которую ощущает человек, с поправкой на солнечный нагрев. Характеристика знойности погоды. Зависит от высоты солнца над горизонтом, облачности и скорости ветра. Ночью, в пасмурную погоду, а также при ветре 12 м/с и более поправка равна нулю.
P - Атмосферное давление - приведенное к уровню моря атмосферное давление.
Po - Атмосферное давление - измеренное на уровне метеостанции атмосферное давление.
Tmin - Минимальная температура - минимум температуры воздуха на высоте 2 м над землей.
Tmax - Максимальная температура - максимум температуры воздуха на высоте 2 м над землей.
R - Количество осадков - Количество выпавших осадков за период времени, мм. При наведении курсора мыши на число - период времени, за который выпало указанное количество осадков.
R24 - Количество осадков - Количество выпавших осадков за 24 часа, мм.
S - Снежный покров - Высота снежного покрова, см. При наведении курсора мыши на число - состояние снежного покрова и степень покрытия местности в баллах.